Regional Weather Roundup
Issued by NWS

Home | Current Version | Previous Version | Graphics & Text | Print | Product List | Glossary On
Versions: 1 2 3 4 5 6 7 8 9 10 11 12 13 14 15 16 17 18 19 20 21 22 23 24 25 26 27 28 29 30 31 32 33 34 35 36 37 38 39 40 41 42 43 44 45 46 47 48 49 50
000
ASUS43 KMPX 072201
RWRMN
WEATHER ROUNDUP FOR MINNESOTA
NATIONAL WEATHER SERVICE TWIN CITIES/CHANHASSEN MN
400 PM CST SUN FEB 07 2016


NOTE: "FAIR" INDICATES FEW OR NO CLOUDS BELOW 12,000 FEET WITH NO
SIGNIFICANT WEATHER AND/OR OBSTRUCTIONS TO VISIBILITY. N/A MEANS
CURRENT SKY AND/OR WEATHER CONDITIONS ARE NOT AVAILABLE.

MNZ060>063-068>070-072300-
   Twin Cities Metro

CITY           SKY/WX    TMP DP  RH WIND       PRES   REMARKS
TWIN CITIES    CLOUDY    37  29  72 W15       29.62S
ST PAUL        CLOUDY    38  29  70 W13       29.63R
CRYSTAL        CLOUDY    38  30  73 W16G22    29.61R
BLAINE         CLOUDY    39  30  70 W9G22     29.60R
LAKEVILLE      CLOUDY    36  30  80 W14G23    29.63S
EDEN PRAIRIE   CLOUDY    37  30  75 W12G21    29.63R
SOUTH ST PAUL  CLOUDY    38  29  69 W9        29.62R
LAKE ELMO      CLOUDY    37  30  75 W14G22    29.62R
$$
MNZ001>005-007-008-013>017-022>024-027-028-072300-
   Northwest Minnesota

CITY           SKY/WX    TMP DP  RH WIND       PRES   REMARKS
BEMIDJI        LGT SNOW  16  13  87 W21G26    29.66R VSB 1   WCI  -1
HALLOCK        SNOW      12   9  85 N35G43    29.85R VSB 1/4 WCI -10
ROSEAU         LGT SNOW  14   9  79 NW22      29.74R VSB 1   WCI  -4
WARROAD        LGT SNOW  12   7  79 NW24G36   29.72R VSB 1   WCI  -8
CROOKSTON      SNOW      14  12  92 N31G38    29.85R VSB 1/4 WCI  -7
FOSSTON        SNOW      10   9  92 NW23G31   29.76R VSB 1/2 WCI -10
DETROIT LAKES  SNOW      18  16  93 NW29G39   29.76R VSB 1/2 WCI  -2
MOORHEAD       LGT RAIN  21  16  79 N30G40    29.83R WCI   3
PARK RAPIDS    SNOW      18  12  77 NW28G37   29.66R VSB 1/2 WCI  -1
MAHNOMEN       SNOW      14  11  87 NW25      29.76R VSB 1/2 WCI  -5
$$
MNZ006-009>011-018-025>026-072300-
   North Central Minnesota

CITY           SKY/WX    TMP DP  RH WIND       PRES   REMARKS
BAUDETTE       LGT SNOW  17  12  80 NW23G30   29.64R WCI  -1
FLAG ISLAND    LGT SNOW  16  10  79 NW26      29.67R WCI  -3
INTL FALLS     MIX PCPN  26  23  88 NW15      29.54R FOG     WCI  14
WASKISH        LGT SNOW  19  16  86 NW15G23   29.64R WCI   5
LONGVILLE      LGT SNOW  21  18  86 NW13G25   29.62R VSB 1   WCI   9
GRAND RAPIDS   CLOUDY    25  19  80 NW15G24   29.55R WCI  12
CRANE LAKE     CLOUDY    30  28  93 NW3       29.50R VSB 1
ORR            MIX PCPN  27  21  80 NW16G22   29.49R WCI  14
COOK           LGT SNOW  28  27  93 W12G22    29.50R WCI  18
WALKER         LGT SNOW  18  14  83 NW21G35   29.63R VSB 1   WCI   2
$$
MNZ012-019>021-037-072300-
   Northeast Minnesota

CITY           SKY/WX    TMP DP  RH WIND       PRES   REMARKS
DULUTH         LGT SNOW  31  27  85 NW17G25   29.47R FOG     WCI  19
ELY            LGT SNOW  32  30  93 W6        29.44R VSB 3/4 WCI  26
HIBBING        LGT SNOW  27  24  89 NW17G23   29.50R VSB 3/4 WCI  14
EVELETH        MIX PCPN  32  30  93 W9G20     29.49R WCI  24
DULUTH HARBOR  CLOUDY    34  32  93 W16       29.51R WCI  23
TWO HARBORS    CLOUDY    37  32  81 NW3       29.44R
SILVER BAY     FLURRIES  36  34  93 CALM      29.43R
GRAND MARAIS     N/A     33  31  92 NE10      29.49R WCI  25
G MARAIS ARPRT LGT SNOW  28  27  93 NE6       29.45R VSB 1   WCI  22
$$
MNZ029>031-032-039>041-046>048-054>057-064-072300-
   West Central Minnesota

CITY           SKY/WX    TMP DP  RH WIND       PRES   REMARKS
FERGUS FALLS   LGT SNOW  25  19  80 N33G40    29.80R VSB 1   WCI   7
WHEATON        FLURRIES  28  21  74 NW26G38   29.82R WCI  13
MORRIS         CLOUDY    28  23  80 NW32G39   29.76R WCI  12
ALEXANDRIA     FLURRIES  25  17  72 NW23G37   29.72R WCI  10
ELBOW LAKE     CLOUDY    25  19  78 W30G37    29.76R HAZE    WCI   8
WADENA         LGT SNOW  18  16  93 NW16G33   29.69R VSB 3/4 WCI   3
GLENWOOD       CLOUDY    27  23  86 NW25G37   29.72R WCI  11
APPLETON       CLOUDY    32  23  69 NW37G43   29.77R WCI  16
BENSON         FLURRIES  28  25  86 N23G33    29.76R WCI  14
ORTONVILLE     CLOUDY    30  21  69 NW22G33   29.80R WCI  17
MADISON        CLOUDY    34  25  69 NW33G45   29.79R WCI  19
WILLMAR        FLURRIES  32  28  86 NW35G41   29.73R WCI  17
$$
MNZ033>034-036-042>043-049>051-058-059-072300-
   Central Minnesota

CITY           SKY/WX    TMP DP  RH WIND       PRES   REMARKS
ST CLOUD       CLOUDY    31  21  66 NW25G43   29.64R WCI  17
SAUK CENTRE    CLOUDY    28  22  77 NW29G36   29.69R WCI  12
PAYNESVILLE    LGT SNOW  31  26  81 NW22G35   29.70R WCI  18
AITKIN         LGT SNOW  28  21  74 NW9G21    29.57R WCI  20
PINE RIVER     LGT SNOW  21  18  86 W12G28    29.67R VSB 3/4 WCI   9
BRAINERD       LGT SNOW  24  20  84 NW20G29   29.62R VSB 3/4 WCI  10
STAPLES        LGT SNOW  21  16  79 NW25G36   29.67R WCI   4
LONG PRAIRIE   CLOUDY    28  21  74 NW32G41   29.67R HAZE    WCI  12
LITTLE FALLS   LGT SNOW  28  21  74 NW20G29   29.66R WCI  15
LITCHFIELD     MIX PCPN  36  32  87 NW23G30   29.67R
BUFFALO        CLOUDY    37  30  78 W15G24    29.63R
MAPLE LAKE     LGT RAIN  37  32  81 NW24G30   29.65R
$$
MNZ037-044-045-052-053-072300-
   East Central Minnesota

CITY           SKY/WX    TMP DP  RH WIND       PRES   REMARKS
PRINCETON      LGT SNOW  34  28  80 W17G40    29.62R WCI  23
MORA           FLURRIES  32  30  93 W17G24    29.59R WCI  21
CAMBRIDGE      RAIN      37  28  70 W13G20    29.57R
RUSH CITY      LGT RAIN  34  32  91 W10       29.57R WCI  26
MOOSE LAKE     LGT SNOW  32  27  80 NW12G17   29.53R WCI  23
HINCKLEY       LGT SNOW  34  32  93 W10       29.55R WCI  26
CLOQUET        LGT SNOW  30  27  86 W17G25    29.50R WCI  18
MCGREGOR       CLOUDY    28  25  86 NW15G24   29.56R WCI  17
$$
MNZ071>073-080-081-089-090-097-098-072300-
   Southwest Minnesota

CITY           SKY/WX    TMP DP  RH WIND       PRES   REMARKS
MONTEVIDEO     CLOUDY    32  27  80 N21G37    29.77R WCI  20
GRANITE FALLS  DRIZZLE   34  31  87 NW30G41   29.77R WCI  20
CANBY          LGT SNOW  34  32  91 W22G32    29.80R WCI  22
MARSHALL       LGT SNOW  32  27  81 NW28G43   29.76R WCI  18
REDWOOD FALLS  FLURRIES  34  30  85 NW20G25   29.72R WCI  23
OLIVIA         CLOUDY    34  32  93 NW29G38   29.71R WCI  20
PIPESTONE      LGT SNOW  34  23  64 N29G37    29.79R WCI  20
WINDOM         LGT SNOW  34  30  86 NW21G28   29.74R WCI  22
WORTHINGTON    CLOUDY    32  25  74 NW23G35   29.78R WCI  19
JACKSON        CLOUDY    34  28  80 NW20G25   29.75R WCI  22
TRACY          FLURRIES  33  30  88 NW30      29.77R WCI  19
SLAYTON        CLOUDY    31  30  94 NW31G38   29.77R FOG     WCI  17
$$
MNZ065>067-074>077-082>085-091>093-072300-
   South Central Minnesota

CITY           SKY/WX    TMP DP  RH WIND       PRES   REMARKS
MANKATO        CLOUDY    36  28  75 W18G25    29.69R
NEW ULM        FLURRIES  34  30  86 NW24G32   29.70R WCI  21
ST JAMES       FLURRIES  36  34  93 W21       29.74R
FAIRMONT       CLOUDY    36  27  69 W17       29.73R
GLENCOE        CLOUDY    36  34  93 W16G22    29.66R
FARIBAULT      CLOUDY    36  30  80 W12G21    29.67R
OWATONNA       CLOUDY    36  30  80 W17       29.68R
WASECA         CLOUDY    34  32  93 W18       29.70R FOG     WCI  23
ALBERT LEA     CLOUDY    36  30  80 W12       29.70R
$$
MNZ078>079-086>088-094>096-072300-
   Southeast Minnesota

CITY           SKY/WX    TMP DP  RH WIND       PRES   REMARKS
ROCHESTER      CLOUDY    35  28  75 W18       29.66R WCI  24
RED WING       CLOUDY    39  27  60 W15       29.62S
STANTON        CLOUDY    38  30  72 W13G20    29.63S
DODGE CENTER   CLOUDY    36  28  75 W17G26    29.66R
WINONA         CLOUDY    39  28  65 NW10G22   29.66S
PRESTON        PTSUNNY   35  27  73 W16       29.68S WCI  25
$$
ABBREVIATIONS USED IN REMARKS
   TC - TEMPERATURES IN CELSIUS
  WCI - WIND CHILL INDEX
   HX - HEAT INDEX
  VSB - VISIBILITY
$$



USA.gov is the U.S. government's official web portal to all federal, state and local government web resources and services.